This is the latest recevied weather packets stored in our database for station/object KF6KYD-WX. If no packets are shown the sender has not sent any weather packets the latest 10 day(s).
| Time | Temp. | Humidity | Pressure | Rain* | Wind** | Luminosity | Snow |
|---|---|---|---|---|---|---|---|
| 1788023836 | 33.33° C | 53% | 0 hPa | 0 mm | - | - | - |
| 1788023536 | 33.33° C | 55% | 0 hPa | 0 mm | - | - | - |
| 1788023206 | 33.33° C | 59% | 0 hPa | 0 mm | - | - | - |
| 1788022906 | 33.33° C | 59% | 0 hPa | 0 mm | - | - | - |
| 1788022576 | 33.33° C | 59% | 0 hPa | 0 mm | - | - | - |
| 1788022246 | 32.78° C | 61% | 0 hPa | 0 mm | - | - | - |
| 1788021946 | 32.22° C | 63% | 0 hPa | 0 mm | - | - | - |
| 1788021646 | 32.22° C | 64% | 0 hPa | 0 mm | - | - | - |
| 1788021346 | 31.67° C | 66% | 0 hPa | 0 mm | - | - | - |
| 1788021016 | 32.22° C | 65% | 0 hPa | 0 mm | - | - | - |
| 1788020716 | 32.22° C | 64% | 0 hPa | 0 mm | - | - | - |
| 1788020386 | 31.67° C | 65% | 0 hPa | 0 mm | - | - | - |
| 1788020056 | 31.67° C | 65% | 0 hPa | 0 mm | - | - | - |
| 1788019726 | 31.11° C | 68% | 0 hPa | 0 mm | - | - | - |
| 1788019396 | 31.11° C | 67% | 0 hPa | 0 mm | - | - | - |
| 1788019066 | 30.56° C | 69% | 0 hPa | 0 mm | - | - | - |
| 1788018736 | 30.56° C | 74% | 0 hPa | 0 mm | - | - | - |
| 1788018436 | 30° C | 74% | 0 hPa | 0 mm | - | - | - |
| 1788018106 | 30° C | 74% | 0 hPa | 0 mm | - | - | - |
| 1788017806 | 29.44° C | 76% | 0 hPa | 0 mm | - | - | - |
| 1788017476 | 29.44° C | 76% | 0 hPa | 0 mm | - | - | - |
| 1788017146 | 29.44° C | 77% | 0 hPa | 0 mm | - | - | - |
| 1788016846 | 29.44° C | 78% | 0 hPa | 0 mm | - | - | - |
| 1788016546 | 29.44° C | 79% | 0 hPa | 0 mm | - | - | - |
| 1788016216 | 29.44° C | 80% | 0 hPa | 0 mm | - | - | - |
* Rain latest hour (hover to see other rain measurements)
** Current wind speed in m/s (hover to see current wind gust speed)